<?xml version="1.0" encoding="UTF-8" standalone="no" ?>
<gpx xmlns="http://www.topografix.com/GPX/1/1" xmlns:xsi="http://www.w3.org/2001/XMLSchema-instance" xsi:schemaLocation="http://www.topografix.com/GPX/1/1 http://www.topografix.com/GPX/1/1/gpx.xsd" version="1.1" creator="VisuGPX - https://www.visugpx.com">
  <metadata>
    <name>Conflans fin d'Oise - Pont Neuville - Château de Fay</name>
  </metadata>
  <trk>
    <name><![CDATA[Conflans fin d'Oise - Pont Neuville - Château de Fay_1]]></name>
    <trkseg>
      <trkpt lat="48.99009" lon="2.08546">
        <ele>22.6</ele>
        <time>2021-11-03T22:29:37+01:00</time>
      </trkpt>
      <trkpt lat="48.98983" lon="2.08393">
        <ele>22.6</ele>
        <time>2021-11-03T22:29:42+01:00</time>
      </trkpt>
      <trkpt lat="48.98971" lon="2.08302">
        <ele>25.8</ele>
        <time>2021-11-03T22:29:47+01:00</time>
      </trkpt>
      <trkpt lat="48.98964" lon="2.08268">
        <ele>24.3</ele>
        <time>2021-11-03T22:29:52+01:00</time>
      </trkpt>
      <trkpt lat="48.98947" lon="2.08195">
        <ele>22.2</ele>
        <time>2021-11-03T22:29:57+01:00</time>
      </trkpt>
      <trkpt lat="48.98812" lon="2.07642">
        <ele>21.5</ele>
        <time>2021-11-03T22:30:02+01:00</time>
      </trkpt>
      <trkpt lat="48.98779" lon="2.07495">
        <ele>22.5</ele>
        <time>2021-11-03T22:30:07+01:00</time>
      </trkpt>
      <trkpt lat="48.98764" lon="2.0741">
        <ele>23</ele>
        <time>2021-11-03T22:30:12+01:00</time>
      </trkpt>
      <trkpt lat="48.98747" lon="2.0731">
        <ele>22.7</ele>
        <time>2021-11-03T22:30:17+01:00</time>
      </trkpt>
      <trkpt lat="48.98743" lon="2.07242">
        <ele>22.3</ele>
        <time>2021-11-03T22:30:22+01:00</time>
      </trkpt>
      <trkpt lat="48.9875" lon="2.07215">
        <ele>21.7</ele>
        <time>2021-11-03T22:30:27+01:00</time>
      </trkpt>
      <trkpt lat="48.98774" lon="2.07211">
        <ele>22.1</ele>
        <time>2021-11-03T22:30:32+01:00</time>
      </trkpt>
      <trkpt lat="48.98798" lon="2.07223">
        <ele>22.3</ele>
        <time>2021-11-03T22:30:37+01:00</time>
      </trkpt>
      <trkpt lat="48.98811" lon="2.07236">
        <ele>22.9</ele>
        <time>2021-11-03T22:30:42+01:00</time>
      </trkpt>
      <trkpt lat="48.98824" lon="2.07242">
        <ele>23.2</ele>
        <time>2021-11-03T22:30:47+01:00</time>
      </trkpt>
      <trkpt lat="48.98852" lon="2.07243">
        <ele>22.7</ele>
        <time>2021-11-03T22:30:52+01:00</time>
      </trkpt>
      <trkpt lat="48.98878" lon="2.07258">
        <ele>23.1</ele>
        <time>2021-11-03T22:30:57+01:00</time>
      </trkpt>
      <trkpt lat="48.98857" lon="2.0732">
        <ele>24.2</ele>
        <time>2021-11-03T22:31:02+01:00</time>
      </trkpt>
      <trkpt lat="48.98853" lon="2.07317">
        <ele>24.4</ele>
        <time>2021-11-03T22:31:07+01:00</time>
      </trkpt>
      <trkpt lat="48.98949" lon="2.07054">
        <ele>25.6</ele>
        <time>2021-11-03T22:31:12+01:00</time>
      </trkpt>
      <trkpt lat="48.98938" lon="2.07111">
        <ele>23.2</ele>
        <time>2021-11-03T22:31:17+01:00</time>
      </trkpt>
      <trkpt lat="48.98962" lon="2.0713">
        <ele>22.5</ele>
        <time>2021-11-03T22:31:22+01:00</time>
      </trkpt>
      <trkpt lat="48.99051" lon="2.07152">
        <ele>22.1</ele>
        <time>2021-11-03T22:31:27+01:00</time>
      </trkpt>
      <trkpt lat="48.99131" lon="2.07165">
        <ele>22.4</ele>
        <time>2021-11-03T22:31:32+01:00</time>
      </trkpt>
      <trkpt lat="48.9919" lon="2.07161">
        <ele>23.4</ele>
        <time>2021-11-03T22:31:37+01:00</time>
      </trkpt>
      <trkpt lat="48.99241" lon="2.07157">
        <ele>22.4</ele>
        <time>2021-11-03T22:31:42+01:00</time>
      </trkpt>
      <trkpt lat="48.99269" lon="2.07152">
        <ele>22.5</ele>
        <time>2021-11-03T22:31:47+01:00</time>
      </trkpt>
      <trkpt lat="48.99343" lon="2.07114">
        <ele>22.6</ele>
        <time>2021-11-03T22:31:52+01:00</time>
      </trkpt>
      <trkpt lat="48.99391" lon="2.07087">
        <ele>22.9</ele>
        <time>2021-11-03T22:31:57+01:00</time>
      </trkpt>
      <trkpt lat="48.99466" lon="2.07073">
        <ele>22.4</ele>
        <time>2021-11-03T22:32:02+01:00</time>
      </trkpt>
      <trkpt lat="48.99553" lon="2.07067">
        <ele>22.6</ele>
        <time>2021-11-03T22:32:07+01:00</time>
      </trkpt>
      <trkpt lat="48.9965" lon="2.07071">
        <ele>23</ele>
        <time>2021-11-03T22:32:12+01:00</time>
      </trkpt>
      <trkpt lat="48.99761" lon="2.07119">
        <ele>22.3</ele>
        <time>2021-11-03T22:32:17+01:00</time>
      </trkpt>
      <trkpt lat="48.99764" lon="2.07133">
        <ele>22.1</ele>
        <time>2021-11-03T22:32:22+01:00</time>
      </trkpt>
      <trkpt lat="48.99774" lon="2.0713">
        <ele>22.3</ele>
        <time>2021-11-03T22:32:27+01:00</time>
      </trkpt>
      <trkpt lat="48.99807" lon="2.0715">
        <ele>21.7</ele>
        <time>2021-11-03T22:32:32+01:00</time>
      </trkpt>
      <trkpt lat="48.99849" lon="2.07153">
        <ele>21.8</ele>
        <time>2021-11-03T22:32:37+01:00</time>
      </trkpt>
      <trkpt lat="48.99878" lon="2.07139">
        <ele>22.4</ele>
        <time>2021-11-03T22:32:42+01:00</time>
      </trkpt>
      <trkpt lat="48.99886" lon="2.07124">
        <ele>22.5</ele>
        <time>2021-11-03T22:32:47+01:00</time>
      </trkpt>
      <trkpt lat="48.99899" lon="2.07118">
        <ele>22.5</ele>
        <time>2021-11-03T22:32:52+01:00</time>
      </trkpt>
      <trkpt lat="48.99943" lon="2.07106">
        <ele>22.4</ele>
        <time>2021-11-03T22:32:57+01:00</time>
      </trkpt>
      <trkpt lat="48.99983" lon="2.07069">
        <ele>24</ele>
        <time>2021-11-03T22:33:02+01:00</time>
      </trkpt>
      <trkpt lat="49.00018" lon="2.07089">
        <ele>23.7</ele>
        <time>2021-11-03T22:33:07+01:00</time>
      </trkpt>
      <trkpt lat="49.00032" lon="2.07112">
        <ele>23</ele>
        <time>2021-11-03T22:33:12+01:00</time>
      </trkpt>
      <trkpt lat="49.00056" lon="2.07113">
        <ele>22.8</ele>
        <time>2021-11-03T22:33:17+01:00</time>
      </trkpt>
      <trkpt lat="49.00085" lon="2.071">
        <ele>22.4</ele>
        <time>2021-11-03T22:33:22+01:00</time>
      </trkpt>
      <trkpt lat="49.00097" lon="2.07093">
        <ele>22.8</ele>
        <time>2021-11-03T22:33:27+01:00</time>
      </trkpt>
      <trkpt lat="49.00106" lon="2.07108">
        <ele>22.8</ele>
        <time>2021-11-03T22:33:32+01:00</time>
      </trkpt>
      <trkpt lat="49.0016" lon="2.07097">
        <ele>21.7</ele>
        <time>2021-11-03T22:33:37+01:00</time>
      </trkpt>
      <trkpt lat="49.00211" lon="2.07071">
        <ele>21.9</ele>
        <time>2021-11-03T22:33:42+01:00</time>
      </trkpt>
      <trkpt lat="49.00255" lon="2.0705">
        <ele>21.9</ele>
        <time>2021-11-03T22:33:47+01:00</time>
      </trkpt>
      <trkpt lat="49.00443" lon="2.06876">
        <ele>22.5</ele>
        <time>2021-11-03T22:33:52+01:00</time>
      </trkpt>
      <trkpt lat="49.00544" lon="2.06774">
        <ele>22</ele>
        <time>2021-11-03T22:33:57+01:00</time>
      </trkpt>
      <trkpt lat="49.00634" lon="2.06642">
        <ele>22.7</ele>
        <time>2021-11-03T22:34:02+01:00</time>
      </trkpt>
      <trkpt lat="49.00699" lon="2.06529">
        <ele>22.6</ele>
        <time>2021-11-03T22:34:07+01:00</time>
      </trkpt>
      <trkpt lat="49.00717" lon="2.06508">
        <ele>22.1</ele>
        <time>2021-11-03T22:34:12+01:00</time>
      </trkpt>
      <trkpt lat="49.00758" lon="2.06427">
        <ele>22.3</ele>
        <time>2021-11-03T22:34:17+01:00</time>
      </trkpt>
      <trkpt lat="49.00814" lon="2.06371">
        <ele>22.4</ele>
        <time>2021-11-03T22:34:22+01:00</time>
      </trkpt>
      <trkpt lat="49.00881" lon="2.06272">
        <ele>21.4</ele>
        <time>2021-11-03T22:34:27+01:00</time>
      </trkpt>
      <trkpt lat="49.00949" lon="2.06168">
        <ele>22.6</ele>
        <time>2021-11-03T22:34:32+01:00</time>
      </trkpt>
      <trkpt lat="49.00998" lon="2.06114">
        <ele>22.8</ele>
        <time>2021-11-03T22:34:37+01:00</time>
      </trkpt>
      <trkpt lat="49.01069" lon="2.06026">
        <ele>22.5</ele>
        <time>2021-11-03T22:34:42+01:00</time>
      </trkpt>
      <trkpt lat="49.01151" lon="2.05894">
        <ele>22.5</ele>
        <time>2021-11-03T22:34:47+01:00</time>
      </trkpt>
      <trkpt lat="49.01273" lon="2.05715">
        <ele>23</ele>
        <time>2021-11-03T22:34:52+01:00</time>
      </trkpt>
      <trkpt lat="49.01315" lon="2.05685">
        <ele>22</ele>
        <time>2021-11-03T22:34:57+01:00</time>
      </trkpt>
      <trkpt lat="49.01326" lon="2.05656">
        <ele>22.9</ele>
        <time>2021-11-03T22:35:02+01:00</time>
      </trkpt>
      <trkpt lat="49.01345" lon="2.05644">
        <ele>22.5</ele>
        <time>2021-11-03T22:35:07+01:00</time>
      </trkpt>
      <trkpt lat="49.01325" lon="2.05592">
        <ele>26.9</ele>
        <time>2021-11-03T22:35:12+01:00</time>
      </trkpt>
      <trkpt lat="49.01267" lon="2.05513">
        <ele>26.2</ele>
        <time>2021-11-03T22:35:17+01:00</time>
      </trkpt>
      <trkpt lat="49.01247" lon="2.055">
        <ele>27.1</ele>
        <time>2021-11-03T22:35:22+01:00</time>
      </trkpt>
      <trkpt lat="49.01215" lon="2.0551">
        <ele>27.1</ele>
        <time>2021-11-03T22:35:27+01:00</time>
      </trkpt>
      <trkpt lat="49.01177" lon="2.05469">
        <ele>27.6</ele>
        <time>2021-11-03T22:35:32+01:00</time>
      </trkpt>
      <trkpt lat="49.0117" lon="2.05414">
        <ele>30.3</ele>
        <time>2021-11-03T22:35:37+01:00</time>
      </trkpt>
      <trkpt lat="49.01184" lon="2.05366">
        <ele>30.4</ele>
        <time>2021-11-03T22:35:42+01:00</time>
      </trkpt>
      <trkpt lat="49.01171" lon="2.05272">
        <ele>35</ele>
        <time>2021-11-03T22:35:47+01:00</time>
      </trkpt>
      <trkpt lat="49.01157" lon="2.05207">
        <ele>38.6</ele>
        <time>2021-11-03T22:35:52+01:00</time>
      </trkpt>
      <trkpt lat="49.01074" lon="2.0526">
        <ele>39.7</ele>
        <time>2021-11-03T22:35:57+01:00</time>
      </trkpt>
      <trkpt lat="49.00981" lon="2.05318">
        <ele>39.6</ele>
        <time>2021-11-03T22:36:02+01:00</time>
      </trkpt>
      <trkpt lat="49.00874" lon="2.05364">
        <ele>37.4</ele>
        <time>2021-11-03T22:36:07+01:00</time>
      </trkpt>
      <trkpt lat="49.00672" lon="2.05503">
        <ele>33.1</ele>
        <time>2021-11-03T22:36:12+01:00</time>
      </trkpt>
      <trkpt lat="49.00691" lon="2.05413">
        <ele>37.3</ele>
        <time>2021-11-03T22:36:17+01:00</time>
      </trkpt>
      <trkpt lat="49.00688" lon="2.05312">
        <ele>46.1</ele>
        <time>2021-11-03T22:36:22+01:00</time>
      </trkpt>
      <trkpt lat="49.00674" lon="2.05213">
        <ele>51.7</ele>
        <time>2021-11-03T22:36:27+01:00</time>
      </trkpt>
      <trkpt lat="49.00669" lon="2.05065">
        <ele>61.2</ele>
        <time>2021-11-03T22:36:32+01:00</time>
      </trkpt>
      <trkpt lat="49.00655" lon="2.04974">
        <ele>65.1</ele>
        <time>2021-11-03T22:36:37+01:00</time>
      </trkpt>
      <trkpt lat="49.00633" lon="2.04976">
        <ele>62.6</ele>
        <time>2021-11-03T22:36:42+01:00</time>
      </trkpt>
      <trkpt lat="49.00618" lon="2.04965">
        <ele>60</ele>
        <time>2021-11-03T22:36:47+01:00</time>
      </trkpt>
      <trkpt lat="49.006" lon="2.04896">
        <ele>60.1</ele>
        <time>2021-11-03T22:36:52+01:00</time>
      </trkpt>
      <trkpt lat="49.00547" lon="2.04753">
        <ele>64.2</ele>
        <time>2021-11-03T22:36:57+01:00</time>
      </trkpt>
      <trkpt lat="49.00522" lon="2.04677">
        <ele>66</ele>
        <time>2021-11-03T22:37:02+01:00</time>
      </trkpt>
      <trkpt lat="49.00504" lon="2.04596">
        <ele>67.5</ele>
        <time>2021-11-03T22:37:07+01:00</time>
      </trkpt>
      <trkpt lat="49.00455" lon="2.0446">
        <ele>65.2</ele>
        <time>2021-11-03T22:37:12+01:00</time>
      </trkpt>
      <trkpt lat="49.00456" lon="2.04318">
        <ele>69</ele>
        <time>2021-11-03T22:37:17+01:00</time>
      </trkpt>
      <trkpt lat="49.00464" lon="2.04106">
        <ele>74.9</ele>
        <time>2021-11-03T22:37:22+01:00</time>
      </trkpt>
      <trkpt lat="49.0046" lon="2.04016">
        <ele>75.7</ele>
        <time>2021-11-03T22:37:27+01:00</time>
      </trkpt>
      <trkpt lat="49.00435" lon="2.04012">
        <ele>76.4</ele>
        <time>2021-11-03T22:37:32+01:00</time>
      </trkpt>
      <trkpt lat="49.0048" lon="2.03659">
        <ele>82.6</ele>
        <time>2021-11-03T22:37:37+01:00</time>
      </trkpt>
      <trkpt lat="49.00499" lon="2.03596">
        <ele>84</ele>
        <time>2021-11-03T22:37:42+01:00</time>
      </trkpt>
      <trkpt lat="49.00519" lon="2.03581">
        <ele>85.3</ele>
        <time>2021-11-03T22:37:47+01:00</time>
      </trkpt>
      <trkpt lat="49.00549" lon="2.03466">
        <ele>87.7</ele>
        <time>2021-11-03T22:37:52+01:00</time>
      </trkpt>
      <trkpt lat="49.00513" lon="2.03344">
        <ele>88.6</ele>
        <time>2021-11-03T22:37:57+01:00</time>
      </trkpt>
      <trkpt lat="49.0048" lon="2.03226">
        <ele>90.1</ele>
        <time>2021-11-03T22:38:02+01:00</time>
      </trkpt>
      <trkpt lat="49.00457" lon="2.03091">
        <ele>92.6</ele>
        <time>2021-11-03T22:38:07+01:00</time>
      </trkpt>
      <trkpt lat="49.00439" lon="2.02961">
        <ele>95</ele>
        <time>2021-11-03T22:38:12+01:00</time>
      </trkpt>
      <trkpt lat="49.00388" lon="2.02841">
        <ele>98.4</ele>
        <time>2021-11-03T22:38:17+01:00</time>
      </trkpt>
      <trkpt lat="49.00328" lon="2.02889">
        <ele>97.2</ele>
        <time>2021-11-03T22:38:22+01:00</time>
      </trkpt>
      <trkpt lat="49.00169" lon="2.03062">
        <ele>106.6</ele>
        <time>2021-11-03T22:38:27+01:00</time>
      </trkpt>
      <trkpt lat="48.99992" lon="2.03182">
        <ele>105.7</ele>
        <time>2021-11-03T22:38:32+01:00</time>
      </trkpt>
      <trkpt lat="48.99982" lon="2.03311">
        <ele>102.8</ele>
        <time>2021-11-03T22:38:37+01:00</time>
      </trkpt>
      <trkpt lat="48.99955" lon="2.03423">
        <ele>103.1</ele>
        <time>2021-11-03T22:38:42+01:00</time>
      </trkpt>
      <trkpt lat="48.99576" lon="2.03599">
        <ele>106.7</ele>
        <time>2021-11-03T22:38:47+01:00</time>
      </trkpt>
      <trkpt lat="48.99447" lon="2.03627">
        <ele>103.1</ele>
        <time>2021-11-03T22:38:52+01:00</time>
      </trkpt>
      <trkpt lat="48.99283" lon="2.03636">
        <ele>96.4</ele>
        <time>2021-11-03T22:38:57+01:00</time>
      </trkpt>
      <trkpt lat="48.99208" lon="2.0362">
        <ele>96.2</ele>
        <time>2021-11-03T22:39:02+01:00</time>
      </trkpt>
      <trkpt lat="48.99039" lon="2.03545">
        <ele>110.6</ele>
        <time>2021-11-03T22:39:07+01:00</time>
      </trkpt>
      <trkpt lat="48.9898" lon="2.03839">
        <ele>101.4</ele>
        <time>2021-11-03T22:39:12+01:00</time>
      </trkpt>
      <trkpt lat="48.98954" lon="2.03875">
        <ele>104</ele>
        <time>2021-11-03T22:39:17+01:00</time>
      </trkpt>
      <trkpt lat="48.98931" lon="2.03978">
        <ele>109.7</ele>
        <time>2021-11-03T22:39:22+01:00</time>
      </trkpt>
      <trkpt lat="48.98925" lon="2.04023">
        <ele>111.3</ele>
        <time>2021-11-03T22:39:27+01:00</time>
      </trkpt>
      <trkpt lat="48.98941" lon="2.0413">
        <ele>110.3</ele>
        <time>2021-11-03T22:39:32+01:00</time>
      </trkpt>
      <trkpt lat="48.99018" lon="2.04566">
        <ele>101.3</ele>
        <time>2021-11-03T22:39:37+01:00</time>
      </trkpt>
      <trkpt lat="48.99051" lon="2.04712">
        <ele>98.5</ele>
        <time>2021-11-03T22:39:42+01:00</time>
      </trkpt>
      <trkpt lat="48.98918" lon="2.04778">
        <ele>103.9</ele>
        <time>2021-11-03T22:39:47+01:00</time>
      </trkpt>
      <trkpt lat="48.98789" lon="2.04853">
        <ele>105.6</ele>
        <time>2021-11-03T22:39:52+01:00</time>
      </trkpt>
      <trkpt lat="48.98703" lon="2.04984">
        <ele>100.5</ele>
        <time>2021-11-03T22:39:57+01:00</time>
      </trkpt>
      <trkpt lat="48.98614" lon="2.05095">
        <ele>93.6</ele>
        <time>2021-11-03T22:40:02+01:00</time>
      </trkpt>
      <trkpt lat="48.98625" lon="2.05184">
        <ele>88.5</ele>
        <time>2021-11-03T22:40:07+01:00</time>
      </trkpt>
      <trkpt lat="48.98635" lon="2.05308">
        <ele>82.4</ele>
        <time>2021-11-03T22:40:12+01:00</time>
      </trkpt>
      <trkpt lat="48.98638" lon="2.05335">
        <ele>81.9</ele>
        <time>2021-11-03T22:40:17+01:00</time>
      </trkpt>
      <trkpt lat="48.98671" lon="2.0562">
        <ele>70.3</ele>
        <time>2021-11-03T22:40:22+01:00</time>
      </trkpt>
      <trkpt lat="48.98715" lon="2.05801">
        <ele>63.4</ele>
        <time>2021-11-03T22:40:27+01:00</time>
      </trkpt>
      <trkpt lat="48.98701" lon="2.05805">
        <ele>63.8</ele>
        <time>2021-11-03T22:40:32+01:00</time>
      </trkpt>
      <trkpt lat="48.98702" lon="2.0595">
        <ele>46.6</ele>
        <time>2021-11-03T22:40:37+01:00</time>
      </trkpt>
      <trkpt lat="48.98719" lon="2.05983">
        <ele>43.6</ele>
        <time>2021-11-03T22:40:42+01:00</time>
      </trkpt>
      <trkpt lat="48.98715" lon="2.06011">
        <ele>40.7</ele>
        <time>2021-11-03T22:40:47+01:00</time>
      </trkpt>
      <trkpt lat="48.98691" lon="2.06013">
        <ele>39.5</ele>
        <time>2021-11-03T22:40:52+01:00</time>
      </trkpt>
      <trkpt lat="48.98691" lon="2.06128">
        <ele>30.7</ele>
        <time>2021-11-03T22:40:57+01:00</time>
      </trkpt>
      <trkpt lat="48.9866" lon="2.06124">
        <ele>30.4</ele>
        <time>2021-11-03T22:41:02+01:00</time>
      </trkpt>
      <trkpt lat="48.9861" lon="2.06349">
        <ele>25</ele>
        <time>2021-11-03T22:41:07+01:00</time>
      </trkpt>
      <trkpt lat="48.98627" lon="2.06362">
        <ele>25</ele>
        <time>2021-11-03T22:41:12+01:00</time>
      </trkpt>
      <trkpt lat="48.9853" lon="2.06673">
        <ele>22.8</ele>
        <time>2021-11-03T22:41:17+01:00</time>
      </trkpt>
      <trkpt lat="48.98602" lon="2.06846">
        <ele>22.3</ele>
        <time>2021-11-03T22:41:22+01:00</time>
      </trkpt>
      <trkpt lat="48.98644" lon="2.06935">
        <ele>22.6</ele>
        <time>2021-11-03T22:41:27+01:00</time>
      </trkpt>
      <trkpt lat="48.98709" lon="2.07029">
        <ele>21.5</ele>
        <time>2021-11-03T22:41:32+01:00</time>
      </trkpt>
      <trkpt lat="48.98787" lon="2.07075">
        <ele>22.1</ele>
        <time>2021-11-03T22:41:37+01:00</time>
      </trkpt>
      <trkpt lat="48.98869" lon="2.07088">
        <ele>23.6</ele>
        <time>2021-11-03T22:41:42+01:00</time>
      </trkpt>
      <trkpt lat="48.98938" lon="2.07117">
        <ele>22.7</ele>
        <time>2021-11-03T22:41:47+01:00</time>
      </trkpt>
      <trkpt lat="48.98953" lon="2.07054">
        <ele>25.2</ele>
        <time>2021-11-03T22:41:52+01:00</time>
      </trkpt>
      <trkpt lat="48.98861" lon="2.07298">
        <ele>24</ele>
        <time>2021-11-03T22:41:57+01:00</time>
      </trkpt>
      <trkpt lat="48.98811" lon="2.07423">
        <ele>24.9</ele>
        <time>2021-11-03T22:42:02+01:00</time>
      </trkpt>
      <trkpt lat="48.98814" lon="2.07447">
        <ele>25.5</ele>
        <time>2021-11-03T22:42:07+01:00</time>
      </trkpt>
      <trkpt lat="48.98802" lon="2.07472">
        <ele>25.7</ele>
        <time>2021-11-03T22:42:12+01:00</time>
      </trkpt>
      <trkpt lat="48.98807" lon="2.07506">
        <ele>27.1</ele>
        <time>2021-11-03T22:42:17+01:00</time>
      </trkpt>
      <trkpt lat="48.98789" lon="2.07515">
        <ele>23.5</ele>
        <time>2021-11-03T22:42:22+01:00</time>
      </trkpt>
      <trkpt lat="48.98876" lon="2.0789">
        <ele>23</ele>
        <time>2021-11-03T22:42:27+01:00</time>
      </trkpt>
      <trkpt lat="48.98977" lon="2.08302">
        <ele>26</ele>
        <time>2021-11-03T22:42:32+01:00</time>
      </trkpt>
      <trkpt lat="48.98989" lon="2.08387">
        <ele>23.2</ele>
        <time>2021-11-03T22:42:37+01:00</time>
      </trkpt>
      <trkpt lat="48.99015" lon="2.08542">
        <ele>23.1</ele>
        <time>2021-11-03T22:42:42+01:00</time>
      </trkpt>
    </trkseg>
  </trk>
</gpx>